Lake Lanier Weather Center

Moon Phase Calendar



Lake Lanier Water Level
Online Cameras

 


      

Current Conditions in Gainesville
11/30/2020 5:19:22 AM

49°F
Feels Like 46
Mist
Humidity
93%
Pressure
29.59"
Wind
4.7 mph (SSE)
Dew Point
48°F
UV Index
0/10 (Low)
Visibility
3 mi

Hourly Forecast

Date & Time Mon, Nov 30
5:00 AM
Mon, Nov 30
6:00 AM
Mon, Nov 30
7:00 AM
Mon, Nov 30
8:00 AM
Mon, Nov 30
9:00 AM
Mon, Nov 30
10:00 AM
Mon, Nov 30
11:00 AM
Mon, Nov 30
12:00 PM
Mon, Nov 30
1:00 PM
Mon, Nov 30
2:00 PM
Mon, Nov 30
3:00 PM
Mon, Nov 30
4:00 PM
Mon, Nov 30
5:00 PM
Mon, Nov 30
6:00 PM
Mon, Nov 30
7:00 PM
Mon, Nov 30
8:00 PM
Mon, Nov 30
9:00 PM
Mon, Nov 30
10:00 PM
Mon, Nov 30
11:00 PM
Tue, Dec 1
12:00 AM
Tue, Dec 1
1:00 AM
Tue, Dec 1
2:00 AM
Tue, Dec 1
3:00 AM
Tue, Dec 1
4:00 AM
Tue, Dec 1
5:00 AM
Tue, Dec 1
6:00 AM
Tue, Dec 1
7:00 AM
Tue, Dec 1
8:00 AM
Tue, Dec 1
9:00 AM
Tue, Dec 1
10:00 AM
Tue, Dec 1
11:00 AM
Tue, Dec 1
12:00 PM
Tue, Dec 1
1:00 PM
Tue, Dec 1
2:00 PM
Tue, Dec 1
3:00 PM
Tue, Dec 1
4:00 PM
Tue, Dec 1
5:00 PM
Tue, Dec 1
6:00 PM
Tue, Dec 1
7:00 PM
Tue, Dec 1
8:00 PM
Tue, Dec 1
9:00 PM
Tue, Dec 1
10:00 PM
Tue, Dec 1
11:00 PM
Wed, Dec 2
12:00 AM
Wed, Dec 2
1:00 AM
Wed, Dec 2
2:00 AM
Wed, Dec 2
3:00 AM
Wed, Dec 2
4:00 AM
Condition
Clouds

Clouds

Clouds

Clouds

Clouds

Clouds

Clouds

Clouds

Clouds

Clouds

Clouds

Rain

Snow

Clouds

Clouds

Clouds

Clouds

Clouds

Clouds

Clouds

Clouds

Clouds

Clouds

Clouds

Clouds

Clouds

Clouds

Clouds

Clouds

Clouds

Clouds

Clouds

Clouds

Clear

Clear

Clear

Clear

Clear

Clear

Clear

Clear

Clear

Clear

Clear

Clear

Clear

Clear

Clear
Temperature 49°F49°F46°F45°F45°F46°F47°F46°F45°F44°F41°F39°F37°F36°F35°F34°F33°F32°F32°F31°F31°F30°F28°F28°F28°F28°F28°F28°F30°F32°F35°F37°F39°F40°F40°F40°F38°F34°F33°F32°F31°F31°F31°F31°F30°F29°F30°F30°F
Feels Like 41°F39°F36°F35°F35°F35°F36°F35°F35°F34°F30°F27°F26°F25°F24°F22°F21°F20°F20°F20°F19°F18°F17°F17°F17°F17°F17°F17°F19°F21°F24°F26°F28°F29°F30°F29°F28°F26°F25°F24°F23°F23°F22°F22°F23°F22°F21°F21°F
Cloudiness 90%89%85%40%61%66%60%66%72%100%100%100%100%98%96%89%87%85%86%85%83%70%59%60%67%71%74%91%80%53%40%32%27%0%0%0%0%0%0%0%0%0%0%0%0%0%0%0%
Visibility 6 mi6 mi6 mi6 mi6 mi6 mi6 mi6 mi6 mi6 mi6 mi6 mi6 mi6 mi6 mi6 mi6 mi6 mi6 mi6 mi6 mi6 mi6 mi6 mi6 mi6 mi6 mi6 mi6 mi6 mi6 mi6 mi6 mi6 mi6 mi6 mi6 mi6 mi6 mi6 mi6 mi6 mi6 mi6 mi6 mi6 mi6 mi6 mi
Precipitation 80%80%80%0%0%0%0%0%0%13%29%33%41%37%37%44%40%40%29%24%24%0%0%0%0%0%0%0%0%0%0%0%0%0%0%0%0%0%0%0%0%0%0%0%0%0%0%0%
Humidity 93%89%86%86%82%77%72%71%71%73%84%88%86%84%88%89%92%93%93%94%93%93%93%93%92%91%91%90%88%84%75%68%63%61%61%63%70%81%86%89%89%89%89%88%88%89%88%87%
Dew Point 48°F46°F42°F41°F40°F39°F39°F37°F36°F37°F37°F35°F33°F32°F31°F30°F28°F27°F26°F25°F24°F23°F22°F21°F21°F20°F19°F19°F19°F18°F18°F17°F17°F17°F18°F19°F20°F21°F21°F21°F21°F20°F20°F20°F19°F19°F19°F18°F
Pressure 29.59"29.62"29.65"29.71"29.77"29.77"29.77"29.77"29.77"29.77"29.77"29.8"29.83"29.85"29.88"29.91"29.94"29.94"29.97"29.97"30"30"30.03"30.03"30.06"30.09"30.12"30.12"30.15"30.15"30.15"30.15"30.12"30.12"30.09"30.09"30.12"30.15"30.18"30.21"30.21"30.21"30.21"30.24"30.24"30.24"30.24"30.24"
Wind Speed 14 mph16.5 mph15 mph14 mph15.3 mph14.6 mph14.8 mph14.3 mph13 mph13.3 mph14.6 mph14.6 mph13.9 mph13.4 mph12.9 mph14.5 mph15.1 mph14.8 mph14.1 mph13 mph13.1 mph12.8 mph12.2 mph11.9 mph11.5 mph11.5 mph11.7 mph11.7 mph12.2 mph12.5 mph12.9 mph12.9 mph12.3 mph12.5 mph12.2 mph11.3 mph9.1 mph6.9 mph6.6 mph6.2 mph6.8 mph6.8 mph7.3 mph8.7 mph5.2 mph4.7 mph7.6 mph8.5 mph
Wind
Direction
255°
WSW
277°
W
282°
WNW
281°
W
284°
WNW
290°
WNW
291°
WNW
289°
WNW
283°
WNW
277°
W
278°
W
280°
W
286°
WNW
282°
WNW
279°
W
281°
W
281°
W
282°
WNW
285°
WNW
288°
WNW
290°
WNW
290°
WNW
285°
WNW
284°
WNW
288°
WNW
287°
WNW
287°
WNW
287°
WNW
290°
WNW
289°
WNW
289°
WNW
289°
WNW
288°
WNW
284°
WNW
284°
WNW
284°
WNW
283°
WNW
281°
W
280°
W
279°
W
270°
W
278°
W
272°
W
283°
WNW
307°
NW
302°
WNW
273°
W
282°
WNW

Daily Forecast

Date High Low Precip. Humidity
Today
Nov 30

Snow
54 °F
32 °F
100%
71%
Tuesday
Dec 1

Clouds
40 °F
28 °F
24%
68%
Wednesday
Dec 2

Clouds
54 °F
29 °F
0%
37%
Thursday
Dec 3

Rain
46 °F
32 °F
99%
57%
Friday
Dec 4

Rain
49 °F
35 °F
99%
56%
Saturday
Dec 5

Clouds
56 °F
33 °F
0%
39%
Sunday
Dec 6

Clouds
49 °F
36 °F
0%
52%
Monday
Dec 7

Clear
46 °F
31 °F
0%
53%
Tuesday
Dec 8

Clouds
48 °F
30 °F
0%
46%
Wednesday
Dec 9

Clear
54 °F
33 °F
0%
49%
Thursday
Dec 10

Clear
61 °F
39 °F
0%
45%
Friday
Dec 11

Rain
53 °F
42 °F
100%
78%
Saturday
Dec 12

Rain
62 °F
37 °F
100%
88%
Sunday
Dec 13

Clouds
48 °F
30 °F
0%
47%
Monday
Dec 14

Clear
49 °F
30 °F
0%
46%
Tuesday
Dec 15

Clear
49 °F
31 °F
0%
47%


Temperature 8-14 Day Outlook



Precipitation 8-14 Day Outlook




Quick Links
Lake Lanier News
Lake Lanier Photos
Lake Lanier Videos




About Us
Contact Us
Site Map
Search Site
Advertise With Us
   
www.DiscoverLanier.com
THE LAKE LANIER WEBSITE

Copyright 2020, Lakes Online
Privacy    |    Legal